sat.trackr.live / text

‹ back to catalog

STARLINK-34219

NORAD 64270 · 2025-120Q

PAYLOAD ACTIVE UNKNOWN

§ Identity

Operator
Country
US
Launch date
2025-06-04
Launch site
AFWTR
Launch vehicle
Mass (kg)
RCS (m²)

Purposes: comms

External: N2YO · Heavens-Above · Gunter

§ Orbital elements

Epoch: 2026-09-20T09:16:24.156480Z

Period
93.85 min
Inclination
53.1576°
Eccentricity
0.0001387
Mean motion
15.34400662 rev/d
Perigee alt
461.8 km
Apogee alt
463.7 km
Semi-major
6,840.8 km
B*
2.5784e-4
RAAN
290.3207°
Arg perigee
85.7585°
Mean anomaly
274.3576°
Rev number
7,375

§ Raw data

STARLINK-342191 64270U 25120Q   26263.38639070  .00008345  00000+0  25784-3 0  99922 64270  53.1576 290.3207 0001387  85.7585 274.3576 15.34400662 73755

JSON: /api/v1/satellites/64270 · /tle

For live sub-satellite position, see the globe view (requires WebGL).

§ Visibility from observer

Set your observer location to see the next 7 days of passes ≥ 10°. The values pass through the URL so the page stays shareable.

No JS? Fill the form by hand. The geolocation button needs JavaScript.